[[{"header":{"parameterUnit":"m.s-1","parameterCategory":1,"la1":30.2991,"la2":30.254,"lo1":-89.0895,"lo2":-89.0444,"dy":0.0017,"dx":0.0017,"nx":28,"ny":28,"refTime":"2025-02-26T03:00:00:Z","depth":0,"parameterNumber":2,"parameterNumberName":"U-component_of_WINDS"},"data":[0,0,0,0,0,0,0,0,0,0,0,0,0,0,0,0,0,0,0,0,0,0,0,0,0,0,0,0,0,0,0,0,0,0,0,0,0,0,0,0,0,0,0,0,0,0,0,0,0,0,0,0,0,0,0,0,0,0,0.3753,0.3753,0,0.3793,0.3793,0.3794,0.3797,0.3797,0.3796,0.3796,0.3834,0.3836,0.3837,0,0,0,0,0,0,0,0,0,0,0,0,0,0.3676,0.3677,0.3753,0.3753,0.3754,0.3793,0.3793,0.3794,0.3797,0.3797,0.3796,0.3796,0.3834,0.3835,0.3837,0,0,0,0,0,0,0,0,0,0,0,0,0,0.3712,0.3678,0.3753,0.376,0.3761,0.3793,0.3793,0.3794,0.3797,0.3797,0.3796,0.3795,0.3833,0.3835,0.3837,0.3863,0,0,0.3844,0.3845,0,0,0,0,0,0,0,0,0.371,0.3714,0.3759,0.376,0.3761,0.3789,0.378,0.3817,0.3797,0.3783,0.3796,0.3795,0.382,0.3823,0.3832,0.3865,0.3867,0.3844,0.3845,0.3846,0.3847,0,0,0,0,0,0,0,0.3707,0.3713,0.3768,0.3759,0.3761,0.376,0.3765,0.3787,0.3805,0.3785,0.3785,0.379,0.382,0.383,0.3833,0.3867,0.3844,0.3846,0.3847,0.3848,0.3923,0.3924,0,0,0,0,0,0,0.3704,0.3711,0.3767,0.377,0.3733,0.3762,0.3767,0.3781,0.3804,0.3807,0.379,0.379,0.3826,0.383,0.3834,0.3866,0.3846,0.3848,0.385,0.3923,0.3924,0.3924,0,0,0,0,0,0,0.3702,0.3709,0.3766,0.374,0.3748,0.3764,0.3779,0.3782,0.3792,0.3809,0.3811,0.3797,0.3826,0.3831,0.3856,0.3867,0.3849,0.3851,0.3922,0.3923,0.3924,0.393,0,0,0,0,0,0,0.37,0.3708,0.3719,0.3741,0.3749,0.3788,0.378,0.3783,0.3795,0.3795,0.3816,0.3819,0.3826,0.3853,0.3858,0.387,0.3853,0.3921,0.3922,0.3924,0.3929,0.3932,0.3934,0,0,0,0,0,0.3697,0.3719,0.372,0.3726,0.3763,0.3789,0.3793,0.3802,0.3796,0.3807,0.3818,0.3818,0.3865,0.3855,0.3861,0.3874,0.392,0.3922,0.3923,0.3928,0.3931,0.3934,0,0,0,0,0,0,0.3697,0.3722,0.3723,0.3753,0.3769,0.3789,0.3803,0.3805,0.3822,0.3821,0.383,0.3835,0.386,0.3869,0.3858,0.39,0.3892,0.3895,0.3893,0.3896,0.3898,0.3896,0.3855,0,0,0,0,0,0.3701,0.3721,0.3741,0.3765,0.3773,0.3786,0.3798,0.3803,0.382,0.3827,0.3839,0.3855,0.3873,0.3885,0.3903,0.393,0.3934,0.3941,0.3944,0.3945,0.3948,0.3963,0.3966,0.393,0.393,0.393,0,0,0.3709,0.3724,0.3736,0.3765,0.3778,0.3798,0.3792,0.3813,0.3827,0.3829,0.3855,0.3864,0.3882,0.3908,0.392,0.3917,0.3959,0.3947,0.3949,0.3951,0.3965,0.3969,0.3972,0.3931,0.3931,0.393,0,0,0.3733,0.3747,0.3768,0.3782,0.3802,0.3811,0.3816,0.3836,0.3843,0.3868,0.387,0.3886,0.3917,0.393,0.394,0.3968,0.3968,0.3973,0.3984,0.3999,0.4002,0.4004,0.4015,0.4018,0.3975,0.3975,0.3975,0,0.374,0.377,0.3779,0.38,0.3813,0.3816,0.3837,0.3849,0.3873,0.3881,0.3877,0.3916,0.3928,0.3957,0.3964,0.3972,0.3978,0.3971,0.4001,0.4004,0.4006,0.4016,0.402,0.3976,0.3976,0.3976,0.3976,0,0.3778,0.3799,0.3813,0.3838,0.3852,0.3873,0.3884,0.3896,0.39,0.3909,0.3934,0.3948,0.3969,0.3976,0.3979,0.4005,0.4002,0.3999,0.3991,0.401,0.4019,0.4023,0.3976,0.3976,0.3976,0.3976,0,0,0.3805,0.3833,0.3839,0.385,0.3872,0.3887,0.3908,0.3929,0.3939,0.3955,0.3973,0.3998,0.3995,0.4007,0.4012,0.4024,0.4045,0.4019,0.402,0.4024,0.4075,0.4078,0.4082,0.4045,0.4046,0.4046,0.4074,0,0.3832,0.387,0.3878,0.3911,0.393,0.3932,0.395,0.3964,0.3973,0.3989,0.3998,0.4016,0.4011,0.4018,0.403,0.404,0.4056,0.4038,0.4061,0.4062,0.4058,0.4087,0.4091,0.4116,0.4077,0.4078,0.4078,0,0.387,0.3888,0.3922,0.3941,0.3949,0.3966,0.3985,0.4001,0.4017,0.4022,0.4034,0.4037,0.4057,0.4047,0.4075,0.4063,0.4072,0.4078,0.408,0.4083,0.4072,0.4092,0.4124,0.4129,0.4084,0.4084,0.4083,0,0.3887,0.3919,0.3944,0.3954,0.3976,0.3987,0.3997,0.4012,0.4024,0.404,0.4048,0.4066,0.4076,0.4089,0.4096,0.4088,0.4124,0.4114,0.4128,0.4128,0.4137,0.4136,0.4172,0.4141,0.4141,0.4141,0.4141,0,0.3917,0.3938,0.3953,0.3968,0.3992,0.3999,0.4022,0.4031,0.4045,0.4061,0.4063,0.4079,0.4087,0.4103,0.4108,0.413,0.4134,0.4139,0.414,0.4139,0.4139,0.4147,0.4145,0.4142,0.4141,0.4141,0.4141,0,0.3941,0.3951,0.3979,0.3998,0.4003,0.4019,0.4035,0.4049,0.4057,0.4078,0.4083,0.4095,0.4114,0.4122,0.4145,0.4148,0.4174,0.4174,0.4169,0.417,0.4184,0.4183,0.4226,0.4233,0.4197,0.4197,0.4197,0,0.3961,0.3977,0.3998,0.401,0.402,0.4038,0.405,0.4058,0.407,0.4089,0.4101,0.412,0.4136,0.4166,0.4176,0.4193,0.4194,0.4208,0.4197,0.4195,0.4195,0.4195,0.4196,0.4211,0.4211,0.4211,0.4211,0,0.3994,0.3998,0.4016,0.4036,0.4051,0.4066,0.4081,0.409,0.41,0.4113,0.4133,0.4146,0.4169,0.4188,0.4206,0.4214,0.4214,0.4215,0.4219,0.4219,0.4216,0.4219,0.4176,0.4214,0.4214,0.4214,0.4213,0.4213,0.4017,0.4032,0.4049,0.4068,0.4081,0.4095,0.4109,0.4119,0.4136,0.4156,0.4159,0.418,0.4194,0.4218,0.4228,0.4243,0.424,0.4246,0.4248,0.4249,0.4251,0.4213,0.4246,0.4246,0.4246,0.4246,0.4246,0,0.4051,0.4062,0.408,0.4102,0.4117,0.4116,0.4132,0.4145,0.4164,0.4177,0.4193,0.4215,0.4233,0.4244,0.4262,0.4273,0.4273,0.4277,0.4277,0.4279,0.4253,0.4248,0.4276,0.4276,0.4276,0.4276,0.4276,0.4276,0.4071,0.4096,0.4102,0.4133,0.4143,0.4165,0.4174,0.4186,0.4197,0.4223,0.4238,0.4245,0.4257,0.4276,0.4292,0.4295,0.4301,0.4306,0.4308,0.4284,0.4281,0.4278,0.4273,0.4307,0.4307,0.4333,0.4334,0.4334]},{"header":{"parameterUnit":"m.s-1","parameterCategory":1,"la1":30.2991,"la2":30.254,"lo1":-89.0895,"lo2":-89.0444,"dy":0.0017,"dx":0.0017,"nx":28,"ny":28,"refTime":"2025-02-26T03:00:00:Z","depth":0,"parameterNumber":3,"parameterNumberName":"V-component_of_WINDS"},"data":[0,0,0,0,0,0,0,0,0,0,0,0,0,0,0,0,0,0,0,0,0,0,0,0,0,0,0,0,0,0,0,0,0,0,0,0,0,0,0,0,0,0,0,0,0,0,0,0,0,0,0,0,0,0,0,0,0,0,2.2566,2.2566,0,2.2566,2.2566,2.2566,2.2524,2.2523,2.2522,2.252,2.252,2.2521,2.2522,0,0,0,0,0,0,0,0,0,0,0,0,0,2.253,2.253,2.2566,2.2566,2.2566,2.2566,2.2566,2.2566,2.2524,2.2523,2.2521,2.252,2.2519,2.252,2.2522,0,0,0,0,0,0,0,0,0,0,0,0,0,2.2539,2.2531,2.2566,2.2545,2.2543,2.2566,2.2566,2.2566,2.2524,2.2523,2.2521,2.2519,2.2519,2.252,2.2522,2.2564,0,0,2.2526,2.2527,0,0,0,0,0,0,0,0,2.2539,2.254,2.2548,2.2547,2.2545,2.2543,2.2553,2.2565,2.2525,2.2532,2.252,2.2519,2.2529,2.2529,2.2533,2.2564,2.2564,2.2527,2.2527,2.2528,2.2529,0,0,0,0,0,0,0,2.2538,2.254,2.2566,2.2549,2.2546,2.2536,2.2535,2.2555,2.2539,2.2531,2.2528,2.2528,2.2527,2.2532,2.2533,2.2564,2.2526,2.2528,2.2529,2.2529,2.263,2.2631,0,0,0,0,0,0,2.254,2.254,2.2566,2.2566,2.2538,2.2538,2.2537,2.2545,2.2539,2.2537,2.253,2.2526,2.253,2.2531,2.2532,2.2582,2.2528,2.2529,2.253,2.2628,2.263,2.2632,0,0,0,0,0,0,2.254,2.2543,2.2566,2.2552,2.2554,2.254,2.255,2.2546,2.255,2.2538,2.2535,2.2537,2.2528,2.253,2.2556,2.2581,2.253,2.2532,2.2626,2.2628,2.2631,2.268,0,0,0,0,0,0,2.2539,2.2543,2.2559,2.2553,2.2555,2.2591,2.2551,2.2547,2.2553,2.2549,2.2544,2.2542,2.2527,2.2554,2.2558,2.2582,2.2533,2.2624,2.2627,2.263,2.2677,2.2684,2.2691,0,0,0,0,0,2.2538,2.2573,2.2561,2.2564,2.2575,2.2592,2.2594,2.2577,2.2555,2.2571,2.2563,2.2542,2.2577,2.2558,2.2561,2.2586,2.2622,2.2626,2.263,2.2673,2.2683,2.2691,0,0,0,0,0,0,2.2583,2.2572,2.2558,2.2593,2.2594,2.2585,2.2605,2.2587,2.2595,2.259,2.2568,2.2567,2.2597,2.2594,2.2572,2.2626,2.2596,2.2601,2.2628,2.2637,2.2644,2.2644,2.2534,0,0,0,0,0,2.2597,2.2612,2.2602,2.2633,2.2635,2.262,2.2627,2.2613,2.2614,2.2614,2.2608,2.2609,2.262,2.2628,2.2638,2.2675,2.2674,2.2694,2.2702,2.2708,2.2712,2.2732,2.2741,2.2645,2.2645,2.2645,0,0,2.2627,2.2622,2.2633,2.2642,2.2642,2.2657,2.2621,2.2639,2.265,2.2616,2.2641,2.2637,2.2636,2.2668,2.2682,2.2667,2.2738,2.2713,2.2718,2.2719,2.2737,2.2746,2.2754,2.2648,2.2647,2.2647,0,0,2.2688,2.2687,2.2713,2.2713,2.2712,2.2702,2.2708,2.2702,2.2698,2.2722,2.2697,2.271,2.273,2.2731,2.2734,2.2794,2.2775,2.2798,2.2837,2.2856,2.2864,2.287,2.2892,2.29,2.2803,2.2803,2.2803,0,2.2725,2.2748,2.2728,2.2748,2.2753,2.2723,2.2749,2.2749,2.2752,2.2756,2.2738,2.2762,2.276,2.2792,2.2807,2.281,2.2816,2.2799,2.2864,2.287,2.2876,2.2897,2.2905,2.2806,2.2805,2.2805,2.2805,0,2.2793,2.2809,2.283,2.2833,2.284,2.2863,2.2847,2.2856,2.2841,2.2833,2.2858,2.2854,2.2862,2.2868,2.2855,2.2898,2.2889,2.2868,2.2837,2.2889,2.2908,2.2916,2.281,2.2809,2.2808,2.2807,0,0,2.2884,2.2876,2.2884,2.2885,2.2882,2.2894,2.2915,2.2923,2.2931,2.2934,2.2951,2.2968,2.2949,2.2952,2.2938,2.2955,2.3003,2.2932,2.2931,2.2946,2.3051,2.3068,2.3077,2.299,2.2991,2.2993,2.3052,0,2.2944,2.298,2.2963,2.3001,2.3015,2.2986,2.3005,2.3005,2.2997,2.3008,2.2999,2.3012,2.2985,2.2987,2.3003,2.2994,2.3024,2.299,2.3006,2.3007,2.3008,2.3087,2.3104,2.316,2.3059,2.306,2.3061,0,2.3019,2.3025,2.3064,2.3058,2.3063,2.308,2.3086,2.3097,2.3096,2.3089,2.3093,2.3074,2.3094,2.3063,2.309,2.3067,2.3072,2.3069,2.3071,2.3072,2.3038,2.3091,2.3178,2.3187,2.3073,2.3072,2.3071,0,2.3082,2.31,2.3125,2.3127,2.312,2.3133,2.313,2.3127,2.3133,2.3138,2.3142,2.3149,2.3153,2.3159,2.3143,2.3121,2.3172,2.3139,2.3167,2.3168,2.318,2.318,2.3269,2.3182,2.3182,2.3182,2.3182,0,2.3151,2.3177,2.3154,2.317,2.3197,2.3176,2.3204,2.3198,2.3196,2.321,2.3185,2.3199,2.3177,2.3188,2.3176,2.32,2.3202,2.3197,2.3194,2.32,2.3201,2.3204,2.32,2.3184,2.3184,2.3183,2.3183,0,2.3227,2.3212,2.3239,2.323,2.3228,2.3249,2.3241,2.3255,2.3245,2.3264,2.3267,2.3252,2.3264,2.3248,2.3259,2.325,2.3284,2.3274,2.3285,2.3282,2.3311,2.3309,2.3406,2.3418,2.3323,2.3324,2.3325,0,2.3272,2.3291,2.3284,2.3292,2.3291,2.3304,2.3309,2.3289,2.3296,2.3296,2.3311,2.332,2.3328,2.3348,2.3338,2.3346,2.3337,2.3371,2.3338,2.3344,2.3338,2.3338,2.3339,2.3378,2.3379,2.338,2.338,0,2.3355,2.3346,2.3356,2.3363,2.337,2.3374,2.3377,2.3384,2.3363,2.3372,2.3384,2.339,2.3401,2.3411,2.3416,2.3413,2.3394,2.3391,2.3398,2.3405,2.341,2.3408,2.3303,2.3389,2.3388,2.3387,2.3387,2.3386,2.3417,2.3432,2.343,2.3441,2.344,2.3443,2.3456,2.3448,2.3457,2.3465,2.3452,2.3467,2.3465,2.347,2.3469,2.3481,2.3467,2.3477,2.3479,2.3482,2.3487,2.3407,2.3482,2.3482,2.3481,2.3481,2.3481,0,2.3498,2.3495,2.3505,2.3509,2.3518,2.3498,2.3499,2.3508,2.3522,2.3521,2.3529,2.3543,2.3552,2.3543,2.3551,2.3562,2.3553,2.3565,2.3564,2.3564,2.3499,2.3493,2.3572,2.3572,2.3572,2.3572,2.3572,2.3572,2.3542,2.3567,2.3558,2.3582,2.3579,2.3594,2.3596,2.3598,2.3598,2.3615,2.3622,2.3616,2.3612,2.3619,2.3627,2.3624,2.3628,2.3644,2.3637,2.3577,2.3568,2.356,2.3554,2.3644,2.3645,2.3701,2.3702,2.3702]}]]